Overview Statistics Trail Chart Weather Telemetry Raw packets
 

This is the latest recevied weather packets stored in our database for station/object G0TQM-11. If no packets are shown the sender has not sent any weather packets the latest 10 day(s).

<< 20 21 22 23 24 25 26 >>
Time Temp. Humidity Pressure Rain* Wind** Luminosity Snow
1788042107 19.44° C 72% 1001.7 hPa - - - -
1788040907 18.89° C 73% 1001.6 hPa - - - -
1788039707 19.44° C 71% 1001.3 hPa - - - -
1788038506 20° C 69% 1001.3 hPa - - - -
1788037306 20.56° C 69% 1001.1 hPa - - - -
1788036106 20° C 68% 1000.9 hPa - - - -
1788034906 20.56° C 68% 1000.6 hPa - - - -
1788033706 20.56° C 65% 1000.4 hPa - - - -
1788032506 21.67° C 60% 1000.1 hPa - - - -
1788031306 22.22° C 62% 999.8 hPa - - - -
1788030105 22.22° C 60% 999.4 hPa - - - -
1788028905 22.22° C 56% 999.3 hPa - - - -
1788027705 22.78° C 56% 999.2 hPa - - - -
1788026505 23.33° C 57% 999.1 hPa - - - -
1788025305 22.78° C 57% 998.9 hPa - - - -
1788024105 21.67° C 57% 998.7 hPa - - - -
1788022905 22.22° C 56% 998.6 hPa - - - -
1788021704 23.89° C 56% 998.6 hPa - - - -
1788020504 23.33° C 58% 998.5 hPa - - - -
1788019304 22.78° C 58% 998.5 hPa - - - -
1788018104 23.33° C 61% 998.5 hPa - - - -
1788016905 22.78° C 62% 998.4 hPa - - - -
1788015705 21.67° C 61% 998.5 hPa - - - -
1788014504 21.67° C 62% 998.5 hPa - - - -
1788013303 22.22° C 59% 998.5 hPa - - - -

* Rain since midnight (hover to see other rain measurements)
** Current wind speed in m/s (hover to see current wind gust speed)